Regional Weather Roundup
Issued by NWS

Home | Current Version | Previous Version | Text Only | Print | Product List | Glossary On
Versions: 1 2 3 4 5 6 7 8 9 10 11 12 13 14 15 16 17 18 19 20 21 22 23 24 25 26 27 28 29 30 31 32 33 34 35 36 37 38 39 40 41 42 43 44 45 46 47 48 49 50
000
ASUS43 KMKX 200821
RWRWI

WISCONSIN REGIONAL WEATHER ROUNDUP
NATIONAL WEATHER SERVICE MILWAUKEE/SULLIVAN WI
300 AM CDT SAT SEP 20 2014

NOTE: "FAIR" INDICATES FEW OR NO CLOUDS BELOW 12,000 FEET WITH NO
SIGNIFICANT WEATHER AND/OR OBSTRUCTIONS TO VISIBILITY.

WIZ001-002-006>008-014>016-023>028-200900-
NORTHWEST WISCONSIN

CITY           SKY/WX    TMP DP  RH WIND       PRES   REMARKS
SUPERIOR ARPT  FOG       55  55 100 CALM      29.58F VSB 1/4
ASHLAND        MOCLDY    66  63  90 SW9       29.60F
HAYWARD        CLOUDY    65  64  97 SW7       29.64F
SIREN          CLOUDY    67  65  93 SW8       29.64S
RICE LAKE      CLOUDY    67  64  93 SW7       29.68F FOG
LADYSMITH      CLOUDY    66  64  92 SW6       29.68F
EAU CLAIRE     CLOUDY    68  64  87 SW9       29.67F
MENOMONIE      CLOUDY    70  65  83 SW12      29.68F
NEW RICHMOND   CLOUDY    68  67  96 SW10G17   29.68S
OSCEOLA        CLOUDY    69  69 100 SW9       29.69S
$$

WIZ003>005-009-010-017-018-200900-
NORTH CENTRAL WISCONSIN

CITY           SKY/WX    TMP DP  RH WIND       PRES   REMARKS
WOODRUFF       CLOUDY    64  61  88 SW7       29.67F
RHINELANDER    CLOUDY    62  58  86 SW9       29.70S
EAGLE RIVER    CLOUDY    63  57  81 SW7       29.67F
LAND O LAKES   CLOUDY    64  59  83 SW3       29.67F
PHILLIPS       CLOUDY    65  63  93 SW9G18    29.65F
TOMAHAWK       CLOUDY    63  59  85 S6        29.70S
MEDFORD        CLOUDY    64  61  91 SW8       29.69F
MERRILL        CLOUDY    64  59  86 SW6       29.71F
$$

WIZ029-030-035-036-043>047-200900-
CENTRAL WISCONSIN

CITY           SKY/WX    TMP DP  RH WIND       PRES   REMARKS
WAUSAU         CLOUDY    64  58  80 SW9       29.71S
MOSINEE        CLOUDY    61  61 100 S10       29.74F
MARSHFIELD     CLOUDY    65  62  90 S13       29.73R
STEVENS POINT  RAIN      61  58  92 S7        29.75S
WAUPACA        RAIN      64  62  93 SW10      29.76F
WAUTOMA        LGT RAIN  63  61  94 SW8       29.80R
WISC RAPIDS    RAIN      64  62  93 S17G24    29.75F FOG
CAMP DOUGLAS   LGT RAIN  66  66 100 SW18      29.76F
$$

WIZ011>013-019>022-031-037>040-048>050-200900-
NORTHEAST WISCONSIN

CITY           SKY/WX    TMP DP  RH WIND       PRES   REMARKS
ANTIGO         CLOUDY    62  58  85 SW15G21   29.73S
STURGEON BAY   CLOUDY    64  54  68 SW10G18   29.74R
GREEN BAY      TSTM      63  57  81 SW10      29.76R
MANITOWOC      MOCLDY    61  53  75 S9        29.77F
APPLETON       TSTM      61  57  88 SW20      29.79R
CLINTONVILLE   LGT RAIN  61  57  88 SW8       29.73F
OSHKOSH        TSTM      64  57  78 SW13G20   29.79R
$$

WIZ032>034-041-042-053>061-200900-
SOUTHWEST WISCONSIN

CITY           SKY/WX    TMP DP  RH WIND       PRES   REMARKS
LA CROSSE      RAIN      67  64  90 S18       29.71F FOG
SPARTA         RAIN      65  63  93 S9G22     29.77F
VIROQUA        CLOUDY    65  65 100 W9        29.81F
BOSCOBEL       LGT RAIN  68  63  84 SW7G17    29.85S
PRAIRIE DU CHI RAIN      65  63  91 W14G22    29.82F
PLATTEVILLE    FAIR      65  60  82 SW16G22   29.87S
$$

WIZ056-057-062-063-064-067-068-200900-
SOUTH CENTRAL WISCONSIN

CITY           SKY/WX    TMP DP  RH WIND       PRES   REMARKS
BARABOO/DELLS  TSTM      66  57  73 W7        29.84R
LONE ROCK      TSTM      71  61  70 W9G22     29.85R
WATERTOWN      MOCLDY    64  57  76 SW14G20   29.84R
MADISON        CLOUDY    66  57  72 SW9       29.83R
MIDDLETON      PTSUNNY   67  56  68 SW14      29.83S
MONROE         CLOUDY    61  55  82 SW17G24   29.85F
JANESVILLE     MOCLDY    64  54  68 SW12G21   29.86S
$$

WIZ051-052-058>065-066-070>072-200900-
SOUTHEAST WISCONSIN

CITY           SKY/WX    TMP DP  RH WIND       PRES   REMARKS
MILWAUKEE      MOCLDY    65  52  62 SW23G30   29.83F
WAUKESHA       MOCLDY    63  52  67 SW16G25   29.86R
MILWAUKEE/TIMM PTCLDY    64  52  63 SW15G23   29.84R
RACINE         PTCLDY    65  52  62 SW17G26   29.86F
BURLINGTON     PTCLDY    61  52  73 SW13G20   29.86S
KENOSHA        PTCLDY    65  53  65 SW14G22   29.86F
FOND DU LAC    CLOUDY    65  55  70 SW15G28   29.82R THUNDER
SHEBOYGAN      CLOUDY    66  54  65 SW18G29   29.79F
WEST BEND      CLOUDY    64  52  63 SW17G28   29.82R
JUNEAU         CLOUDY    64  56  74 S15G23    29.84R
$$

LSZ147-162-200900-
LAKE SUPERIOR

STATION/POSITION TIME  TEMP    WIND        PRES    WAVE
                       AIR SEA DIR/SP/G            HT/PER
                 (UTC) (F)     (DEG/KT/KT) (MB)    (FT/S)
W MID LAKE BUOY  0750   56 48  230/  6/  6 1001.7F   1
DEVILS ISLAND    0800   59     270/  9/ 10 1001.7F
PORT WING        0700   66     190/  4/  7 1002.4
SAXON HARBOR     0700   68     200/  2/  8 1002.7F
$$

LMZ867-665-643>646-200900-
LAKE MICHIGAN

STATION/POSITION TIME  TEMP    WIND        PRES    WAVE
                       AIR SEA DIR/SP/G            HT/PER
                 (UTC) (F)     (DEG/KT/KT) (MB)    (FT/S)
N MID LAKE BUOY  0750   61 58  210/ 23/ 27 1005.8F   8/ 8
NORTHPORT PIER   0700   60     170/  6/ 12 1007.1S
SISTER BAY       0742          180/ 11/ 13   N/A
KEWAUNEE LAKESHO 0800   61     190/  8/  9 1006.9F
SHEBOYGAN LAKESH 0800   62 55  200/ 16/ 17 1008.8F
PORT WASHINGTON  0740   66     210/  5/ 11 1010.2F
ATWATER BUOY     0800   65     210/ 16/ 21 1011.7F
MILWAUKEE LAKESH 0800   66     230/ 14/ 18   N/A
S MID LAKE BUOY  0750   65 64  200/ 23/ 27 1011.1F   4/ 5
KENOSHA   LAKESH 0800   67     210/ 12/ 20 1010.8F
$$

TC  - TEMPERATURE IN CELSIUS
VSB - VISIBILITY IN STATUTE MILES
WCI - WIND CHILL INDEX
HX  - HEAT INDEX




USA.gov is the U.S. government's official web portal to all federal, state and local government web resources and services.